SCP
0 0 0 0 0 0 0 0 0 0 0 0 0 0 0 0 0 0 0 0 0 0 0 0 0 0 0 0 0 0 0 0 0 0 0 0 0 0 0 0 0 0 0 0 0 0 0 0 0 0 0 0 0 0
0 0 0 0 0 0 0 0 0 0 0 0 0 0 0 0 0 0 0 0 0 0 0 0 0 0 0 0 0 -0 0 0 0 0 0 0 0 0 0 0 0 0 0 0 0 0 0 0 0 0 0 0 0 0
0 0 0 0 0 0 0 0 0 0 0 0 0 0 0 0 0 0 0 0 0 0 -0 0 -0 0 0 0 0 0 0 0 0 0 0 0 0 0 0 0 0 0 0 0 0 0 0 0 0 0 0 0 0 0
0 0 0 0 0 0 0 0 0 0 0 0 0 0 0 0 0 0 0 0 0 0 0 0 0 0 0 0 0 0 0 0 0 0 0 0 0 0 0 0 0 0 0 0 0 0 0 0 0 0 0 0 0 0
0 0 0 0 0 0 0 0 0 0 0 0 0 0 0 0 0 0 0 0 0 0 0 0 0 0 0 0 0 0 0 0 0 0 0 0 0 0 0 0 0 0 0 0 0 0 0 0 0 0 0 0 0 0
0 0 0 0 0 0 0 0 0 0 0 0 0 0 0 0 0 0 0 0 0 0 0 0 0 0 0 0 0 0 0 0 0 0 0 0 0 0 0 0 0 0 0 0 0 0 0 0 0 0 0 0 0 0
0 0 0 0 0 0 0 0 0 0 0 0 0 0 0 0 0 0 0 0 0 0 0 0 0 0 0 0 0 0 0 0 0 0 0 0 0 0 0 0 0 0 0 0 0 0 0 0 0 0 0 0 0 0
0 0 0 0 0 0 0 0 0 0 0 0 0 0 0 0 0 0 0 0 -0 0 0 0 0 0 0 0 0 0 0 0 0 0 0 0 0 0 0 0 0 0 0 0 0 0 0 0 0 0 0 0 0 0
0 0 0 0 0 0 0 0 -0 -0 -0 -0 0 0 0 0 0 0 0 0 0 0 0 0 0 0 0 0 0 0 0 0 0 0 0 0 0 0 0 0 0 0 0 0 0 0 0 0 0 0 0 0 0 0
0 0 0 0 0 0 0 0 0 -0 -0 0 0 0 0 0 0 0 0 0 0 0 0 0 0 0 0 0 0 0 0 0 0 0 0 0 0 0 0 0 0 0 0 0 0 0 0 0 0 0 0 0 0 0
0 0 0 0 0 0 0 -0 -0 -0 0 0 0 0 0 0 0 0 0 0 0 0 0 0 0 0 0 0 0 0 0 0 0 0 0 0 0 0 0 0 0 0 0 0 0 0 0 0 0 0 0 0 0 0
0 0 0 0 0 0 0 0 0 0 0 0 0 0 0 0 0 0 0 0 0 0 0 0 0 0 0 0 0 0 0 0 0 0 0 0 0 0 0 0 0 0 0 0 0 0 0 0 0 0 0 0 0 0
0 0 0 0 0 0 0 0 0 0 0 0 0 0 0 0 0 0 0 0 0 0 0 0 0 0 0 0 0 0 0 0 0 0 0 0 0 0 0 0 -0 0 0 0 0 0 0 0 0 0 0 0 0 0
0 0 0 0 0 0 0 0 0 0 0 0 0 0 0 0 0 0 0 0 0 0 0 0 0 0 0 0 0 0 0 0 0 0 0 0 0 0 0 0 0 0 0 0 0 0 0 0 0 0 0 0 0 0
0 0 0 0 0 0 0 0 0 0 0 0 0 0 0 0 0 0 0 0 0 0 0 0 0 0 0 0 0 0 0 0 0 0 0 0 0 0 0 0 0 0 0 0 0 0 0 0 0 0 0 0 0 0
0 0 0 0 0 0 0 0 0 0 0 0 0 0 0 0 0 0 0 -0 0 0 0 0 0 0 0 0 0 0 0 0 0 0 -0 -0 0 0 0 0 0 0 0 0 0 0 0 0 0 0 0 0 0 -0
0 0 0 0 0 0 0 0 0 0 0 0 0 0 0 0 0 0 0 -0 -0 0 0 0 0 0 0 0 0 0 0 0 0 -0 0 -0 0 0 0 0 0 0 0 0 0 0 0 0 0 0 0 0 0 0
0 0 0 0 0 -0 -0 0 0 0 -0 0 0 0 0 0 0 0 0 0 0 0 -0 0 0 0 0 0 0 0 0 0 0 0 0 0 0 0 0 0 0 0 0 0 0 0 0 0 0 0 0 0 0 0
0 0 0 0 0 0 0 0 -0 0 0 0 0 -0 0 0 0 0 0 -0 -0 -0 0 0 0 0 0 0 0 0 0 0 0 0 0 0 0 0 0 0 0 0 0 0 0 -0 0 0 0 0 0 0 0 0
0 0 0 0 0 0 0 0 -0 0 0 0 0 0 -0 -0 0 0 -0 -0 0 0 0 0 0 0 0 0 0 0 0 0 0 0 0 0 0 0 0 0 0 0 0 0 -0 0 0 0 0 0 0 0 0 0
0 0 0 0 0 0 0 0 0 0 0 0 0 -0 -0 -0 -0 -0 -0 -0 0 0 0 0 0 0 0 0 0 0 0 0 0 0 0 0 0 0 0 0 0 0 0 -0 0 -0 0 0 0 0 0 0 0 0
0 0 0 0 0 0 0 0 0 0 0 0 0 0 0 0 0 0 0 0 0 0 0 0 0 0 -0 -0 0 0 0 0 0 0 0 0 0 0 0 0 0 -0 -0 -0 0 0 -0 0 0 0 0 0 0 0
0 0 0 0 0 0 0 0 0 0 0 0 0 0 0 0 0 0 0 0 0 0 0 0 0 0 -0 0 0 0 0 0 0 0 0 0 0 0 0 0 0 0 0 0 0 0 0 0 0 0 0 0 0 0
0 0 0 0 0 0 0 0 0 0 0 0 0 0 0 0 0 0 0 0 0 0 0 0 -0 0 0 0 0 0 -0 -0 -0 -0 -0 -0 -0 -0 0 0 0 0 0 0 0 0 0 0 0 0 0 0 0 0
0 0 0 0 0 -0 0 0 0 0 0 0 0 0 0 0 0 0 0 0 0 0 0 0 -0 -0 0 -0 0 0 -0 0 0 0 0 0 0 0 0 0 0 0 0 0 0 0 0 0 0 0 0 0 0 0
0 0 -0 -0 -0 0 0 0 0 0 0 0 0 0 0 0 0 0 0 0 0 0 0 0 -0 0 0 0 -0 -0 0 0 0 0 0 0 0 0 0 0 0 0 0 0 0 0 0 0 0 0 0 0 0 0
0 0 0 0 0 0 0 0 0 0 0 0 0 0 -0 0 0 0 0 0 0 0 0 0 -0 0 -0 0 0 0 -0 0 -0 0 0 0 0 0 0 0 0 -0 -0 -0 0 -0 -0 0 0 0 0 0 0 0
0 0 0 0 0 0 0 0 -0 0 0 0 -0 0 0 0 0 0 0 0 0 0 0 -0 -0 -0 -0 0 -0 0 0 0 -0 0 0 0 0 0 -0 -0 0 0 0 -0 0 0 -0 0 0 0 0 0 0 0
0 0 0 0 0 0 0 0 0 0 0 0 0 0 0 0 0 0 0 0 0 0 -0 -0 0 0 0 0 0 0 0 0 0 0 -0 0 -0 0 0 -0 0 0 0 0 -0 -0 -0 0 -0 0 0 0 0 0
0 0 0 0 0 0 0 -0 0 0 0 0 0 0 0 0 0 -0 0 0 0 0 0 0 -0 0 0 0 0 0 -0 0 0 0 0 0 0 -0 0 0 -0 0 0 -0 0 0 -0 -0 0 0 0 0 0 0
0 0 0 0 0 0 0 0 0 0 0 0 0 0 0 0 0 -0 -0 0 0 0 0 0 0 0 0 -0 -0 -0 -0 -0 -0 -0 0 0 0 0 -0 -0 0 0 -0 0 -0 -0 -0 -0 -0 0 0 0 0 0
0 0 0 0 0 0 0 0 0 0 0 0 0 0 0 0 0 -0 -0 0 0 0 0 0 0 0 0 0 -0 -0 -0 -0 -0 0 0 -0 -0 -0 -0 -0 -0 -0 -0 -0 0 -0 -0 -0 0 0 0 0 -0 -0
-0 -0 0 0 0 0 0 0 0 0 0 0 0 0 0 0 0 0 0 0 0 0 0 0 0 0 0 0 0 0 0 0 0 -0 -0 -0 -0 -0 0 0 -0 -0 -0 -0 -0 -0 -0 -0 -0 -0 -0 -0 -0 -0
Wind_Speed_500mb
30 30 32 33 30 25 24 24 21 22 21 20 24 28 32 29 31 35 25 24 19 15 49 49 39 22 17 11 3 15 12 12 8 9 6 6 7 10 9 9 13 13 12 7 7 6 9 20 8 13 12 23 35 32
27 27 29 31 28 23 21 20 18 18 20 23 24 22 27 28 30 31 24 29 17 25 30 28 30 36 37 41 16 5 5 6 7 4 1 6 3 5 10 7 4 3 12 12 14 12 9 18 9 11 26 29 29 35
22 24 27 23 23 17 18 19 23 26 25 18 25 26 26 26 27 25 24 30 18 24 51 59 62 37 31 51 49 16 11 5 5 11 3 2 5 5 9 9 7 4 6 8 8 7 13 19 21 24 26 22 21 18
20 22 16 16 18 16 15 17 26 26 20 14 21 23 26 24 21 23 22 19 12 9 10 17 14 24 13 25 35 41 51 19 9 20 7 2 2 3 6 6 8 9 12 11 4 4 10 24 28 31 33 26 14 3
21 19 14 13 14 16 16 21 23 26 19 16 17 20 20 18 16 18 20 16 16 17 9 27 63 32 30 35 38 39 41 48 40 4 1 7 8 5 3 1 2 14 13 10 11 30 17 45 43 44 37 25 9 6
15 14 11 9 14 12 17 23 25 18 14 13 12 16 17 14 10 2 4 12 24 30 10 8 20 22 15 22 26 37 43 47 27 15 11 9 6 8 6 5 9 21 18 15 10 29 21 36 48 43 30 22 16 16
14 10 10 10 9 12 18 20 18 10 8 5 7 9 11 11 11 9 7 14 20 22 8 11 13 11 16 16 30 27 28 27 23 21 9 5 5 7 7 8 13 27 21 24 19 25 21 37 39 43 33 26 21 17
21 16 8 7 9 11 14 13 14 12 7 2 4 2 1 6 16 24 12 13 24 10 9 6 9 17 7 7 13 22 16 20 19 16 10 10 6 3 4 17 10 28 23 19 38 26 23 24 32 41 39 34 28 19
27 23 11 8 6 5 7 9 6 3 4 9 3 7 10 21 10 1 8 10 22 10 6 5 5 7 19 9 8 13 13 4 7 6 10 12 2 9 12 15 19 29 21 33 32 30 33 34 42 46 48 40 32 22
16 17 15 7 4 4 5 9 7 7 13 10 20 9 8 7 8 7 4 8 10 8 10 9 9 7 11 11 5 5 3 5 4 9 17 7 9 27 48 57 67 60 47 30 39 30 33 33 39 49 54 49 32 21
16 16 17 15 13 10 10 8 11 15 14 18 7 5 4 12 6 4 6 8 9 7 12 14 21 7 6 1 2 2 4 2 3 7 8 4 7 21 61 56 62 73 76 69 65 53 43 41 37 44 56 50 37 27
16 17 15 15 12 12 14 11 7 9 9 11 17 15 4 4 5 6 5 3 8 8 10 10 14 21 9 5 6 8 5 2 6 2 4 6 11 41 39 55 73 63 57 54 55 42 39 35 29 32 51 55 45 30
16 16 15 13 12 12 15 13 7 4 13 13 6 5 3 3 1 5 5 5 5 6 8 7 6 8 12 6 10 0 2 7 5 2 6 9 14 15 19 34 39 53 42 48 55 45 38 31 29 29 30 56 49 41
14 14 15 16 14 12 14 10 12 8 5 5 4 5 5 5 8 8 5 4 9 15 31 12 5 7 6 6 7 6 3 3 4 4 8 5 12 11 4 5 15 28 49 56 56 49 42 42 34 32 32 52 61 51
11 12 11 14 12 14 11 13 18 19 5 5 6 6 10 17 13 10 13 9 12 19 19 4 2 6 3 5 2 7 3 5 9 7 6 2 10 15 16 15 8 5 6 6 19 40 45 39 31 36 36 52 65 53
11 9 9 12 15 14 15 5 13 13 7 7 10 7 12 6 9 13 11 3 14 9 6 10 7 9 6 3 5 8 10 8 6 6 8 11 14 13 16 23 26 8 5 8 10 20 35 37 32 36 33 50 67 62
12 8 8 7 13 17 13 4 5 7 8 8 11 16 28 28 25 21 23 5 6 4 4 6 8 16 4 3 1 1 6 5 7 16 11 9 5 15 18 19 21 21 15 8 4 10 16 29 27 37 46 54 65 66
7 5 5 5 9 12 10 7 5 7 10 17 11 23 15 20 29 28 21 16 5 1 13 8 10 4 3 2 2 5 5 1 1 4 3 1 2 5 9 12 17 19 22 21 17 10 28 10 30 31 37 39 61 67
9 7 7 2 12 8 6 7 9 8 18 16 23 31 32 36 31 26 23 9 11 7 3 2 3 4 6 8 6 2 2 8 9 11 14 8 11 13 11 10 14 19 15 18 14 5 17 15 12 35 38 46 54 68
15 4 7 6 16 3 4 6 9 10 10 7 18 24 19 22 27 30 22 20 18 8 8 6 8 8 5 13 12 15 4 3 7 16 19 14 16 16 19 18 10 11 15 17 20 22 20 17 13 17 39 53 53 68
9 6 6 10 13 8 8 7 9 10 13 12 20 19 14 21 26 28 34 33 19 12 13 31 34 33 28 13 22 25 22 19 25 24 21 25 20 18 19 18 20 23 31 35 34 30 28 27 21 19 25 44 60 58
12 10 5 9 8 7 11 12 12 17 12 15 19 9 12 8 12 16 15 15 11 28 37 45 53 56 52 43 37 34 32 25 23 30 27 25 30 34 35 36 39 43 39 27 21 23 28 31 31 20 25 39 53 67
14 15 7 10 6 8 12 9 9 8 5 7 6 6 6 7 7 6 6 9 12 16 20 25 29 39 42 36 32 30 22 31 31 26 26 30 38 46 47 46 44 42 35 32 33 34 34 29 30 25 28 36 56 60
5 4 6 7 11 7 7 8 11 9 7 5 4 6 6 7 3 3 5 7 9 14 13 12 10 25 31 33 37 38 36 35 36 38 38 41 43 42 39 37 38 38 37 39 41 39 35 25 23 25 28 39 50 49
7 8 6 7 10 6 6 7 8 4 7 7 5 6 6 4 1 4 5 5 14 15 15 12 10 8 16 25 31 31 27 29 30 27 26 32 33 36 40 40 39 41 44 51 50 43 34 25 21 25 33 49 58 61
8 11 13 10 8 9 7 6 6 7 5 6 8 6 1 3 5 3 1 10 8 16 20 19 11 9 10 15 16 17 22 25 26 32 27 25 24 25 27 30 34 34 36 38 36 36 31 33 24 18 32 46 54 66
5 8 14 16 12 10 10 16 15 5 7 5 5 6 2 4 6 8 16 7 20 25 23 15 11 3 7 10 4 5 6 10 13 10 12 6 4 17 21 11 12 19 27 28 22 24 34 32 35 23 27 26 36 46
10 9 9 7 14 19 6 7 2 4 6 10 8 6 6 5 6 9 10 20 19 19 15 8 2 3 6 5 1 2 6 8 8 7 4 1 8 8 11 18 14 14 22 18 8 18 18 23 38 39 29 46 48 50
12 13 9 15 14 13 14 10 6 9 21 10 6 7 8 7 7 8 11 12 16 16 11 2 7 10 10 12 12 8 4 1 1 5 0 1 3 8 26 18 16 23 19 20 22 26 33 31 28 26 21 20 20 20
12 17 10 10 8 8 10 19 31 33 34 40 30 18 13 13 7 8 12 13 10 9 12 8 12 7 9 9 6 10 9 14 10 4 4 4 5 5 7 16 22 12 2 8 10 17 18 15 18 19 28 32 39 48
11 8 11 11 9 17 23 25 34 32 23 31 33 37 28 7 4 6 7 7 10 7 3 10 8 13 7 7 9 8 14 17 17 13 13 15 23 17 18 14 8 8 16 16 15 16 20 22 26 33 35 38 32 29
16 16 7 5 11 22 31 22 12 12 16 15 12 8 12 7 3 0 8 13 17 21 23 18 13 13 17 21 21 18 19 18 14 16 18 21 22 25 25 25 32 30 29 30 31 33 31 28 26 29 32 31 32 37
30 22 21 14 8 4 4 8 6 8 7 5 5 1 4 3 2 4 17 20 24 29 20 21 19 20 23 25 21 22 23 25 26 25 26 29 28 30 33 38 41 45 47 49 49 49 48 49 47 44 42 40 34 29
Wind_Direction_500mb
300 301 308 305 297 286 283 296 296 299 282 276 263 258 253 252 256 250 243 221 232 248 263 257 260 256 270 253 277 327 333 347 7 41 121 203 134 214 106 176 178 155 143 173 94 106 263 194 107 163 207 172 192 211
301 310 315 308 299 281 285 281 297 295 283 277 276 267 262 259 259 261 240 201 222 259 262 252 255 258 248 240 263 281 312 301 295 115 20 98 233 121 142 201 73 151 174 177 167 205 222 170 176 188 173 183 202 220
298 311 312 327 319 306 303 292 301 312 306 272 264 266 258 253 256 257 245 206 263 268 285 270 268 274 251 242 244 222 269 243 239 48 148 141 244 113 153 223 120 323 179 114 102 248 185 186 183 167 167 174 197 229
299 309 311 327 330 321 304 304 309 311 297 273 271 259 253 253 250 247 240 212 253 291 278 285 257 264 229 209 209 223 230 228 258 355 352 119 354 167 219 165 146 187 137 143 255 272 120 173 174 170 166 171 185 274
310 306 318 315 312 305 303 303 303 317 305 283 268 252 247 246 247 246 236 212 234 229 289 289 301 278 236 228 228 225 227 238 252 280 135 234 195 162 13 11 219 193 165 156 211 192 170 187 184 179 175 175 172 222
312 330 318 306 292 284 301 314 313 306 284 265 243 241 235 230 215 226 262 245 225 234 282 294 305 288 231 209 202 210 225 236 215 190 211 241 239 186 127 228 265 201 197 211 194 179 175 187 186 182 186 191 201 212
290 326 316 288 285 299 316 320 298 280 281 266 250 247 236 220 215 232 228 170 169 190 245 289 285 278 311 205 199 194 208 197 201 198 206 200 213 172 125 187 219 200 199 209 184 165 159 176 189 194 203 202 194 204
253 281 301 293 313 339 331 305 289 249 226 331 16 0 34 326 283 281 247 243 183 211 250 278 277 315 10 168 150 183 177 187 206 198 172 181 155 66 222 233 245 186 180 188 171 181 196 198 206 202 200 198 198 211
248 250 264 286 320 333 350 342 342 314 191 129 95 273 266 276 259 213 202 194 201 231 279 248 270 281 351 37 145 157 176 110 198 156 200 153 181 210 220 264 217 213 216 203 190 192 185 205 213 206 202 196 203 202
264 250 236 234 279 314 273 354 348 54 114 155 288 261 234 173 173 151 139 180 205 228 230 248 256 268 335 2 52 112 149 154 165 237 154 164 237 226 219 235 259 265 241 234 188 180 186 199 207 210 211 210 205 196
267 258 246 241 260 261 264 264 241 236 242 271 269 264 81 136 176 236 215 188 189 234 224 239 229 236 297 29 214 58 138 56 137 258 148 232 257 231 228 221 225 232 235 232 229 223 221 231 225 217 215 206 198 191
271 256 246 235 241 259 270 258 274 225 221 288 303 311 196 241 245 246 210 202 201 238 210 207 238 211 243 229 87 356 106 75 223 269 140 255 246 236 244 237 229 235 243 227 210 221 225 229 242 229 222 205 197 188
277 250 229 237 238 264 264 248 232 270 266 300 305 300 235 224 352 229 240 259 265 295 331 283 245 222 186 155 76 142 139 229 329 94 232 230 301 311 266 241 226 229 228 221 221 230 227 236 227 224 227 209 193 194
270 229 221 225 228 252 225 208 224 274 291 271 261 279 234 217 239 205 253 264 291 300 317 314 275 199 181 143 166 118 232 65 3 313 247 266 333 11 354 188 216 236 242 241 237 236 236 232 235 225 236 209 195 199
227 209 213 223 252 214 244 218 216 221 284 260 245 237 227 238 275 273 300 293 331 293 345 347 345 340 284 136 134 103 96 238 209 235 243 278 97 85 84 84 88 93 83 65 228 229 232 224 233 232 228 206 201 202
215 210 230 236 234 229 199 253 190 180 261 246 239 268 269 280 293 319 314 180 339 301 26 48 28 355 320 13 156 216 157 217 257 239 165 144 112 107 84 62 47 69 206 25 28 233 216 221 225 220 201 195 203 204
194 230 211 227 205 192 197 191 168 205 249 245 249 258 271 281 267 291 328 239 57 19 99 83 151 228 315 311 241 27 182 224 226 165 167 164 76 57 61 51 48 45 48 333 68 46 234 219 218 217 204 201 207 206
201 184 161 186 173 184 221 212 236 238 250 249 248 265 265 267 289 298 311 327 306 94 156 161 244 253 217 211 231 250 239 89 190 240 250 115 50 34 20 14 23 22 22 19 308 317 0 257 213 210 203 204 208 210
195 187 204 208 175 154 197 225 223 260 246 259 261 268 275 278 283 281 290 271 242 265 260 218 292 245 238 222 202 205 119 85 44 337 320 285 279 284 301 314 321 330 344 7 38 7 320 340 309 231 221 212 206 210
222 238 207 199 184 309 249 233 223 258 265 270 274 268 260 264 281 274 251 247 257 227 203 209 216 226 199 143 80 39 69 194 252 299 307 283 306 309 311 286 291 317 324 334 333 333 337 326 289 277 235 218 212 207
178 207 201 183 204 266 270 277 251 250 282 270 282 291 270 257 258 255 259 265 238 213 221 224 227 240 242 248 279 298 294 293 276 276 282 285 298 301 305 310 303 305 310 308 309 317 320 335 317 269 245 233 222 214
180 217 155 169 224 232 266 251 262 294 276 270 294 243 258 259 248 249 258 206 226 242 234 238 237 235 238 249 259 268 277 277 271 250 247 258 270 281 287 291 290 294 301 303 305 309 310 308 320 284 243 231 225 218
185 192 213 175 242 224 268 256 256 251 244 259 276 272 249 246 238 229 249 230 246 273 299 281 266 248 241 239 250 260 264 250 268 267 253 263 273 278 276 274 275 279 282 285 295 300 303 292 288 295 238 228 216 213
183 221 212 205 208 263 263 249 230 257 262 262 252 261 262 250 267 229 243 259 299 325 329 328 276 242 239 243 244 246 253 268 259 262 266 268 273 270 272 270 271 269 272 282 286 285 289 273 264 266 233 219 200 211
206 221 232 221 213 239 254 248 212 229 246 237 261 267 269 265 260 253 227 306 350 11 7 351 323 298 251 249 250 255 251 249 245 249 263 266 270 264 262 264 261 264 273 276 277 275 274 249 238 247 223 206 202 202
224 208 197 212 216 201 243 268 209 219 239 257 239 250 53 318 257 244 317 328 333 359 354 346 326 314 287 251 252 248 250 253 251 261 279 270 276 280 279 276 274 270 269 270 268 259 241 216 208 225 213 206 213 209
248 239 234 234 245 269 267 260 261 225 241 249 309 333 268 266 356 336 299 311 330 336 332 320 321 26 20 160 150 170 172 223 229 273 276 250 282 322 326 261 276 286 277 272 251 213 197 204 198 194 187 197 214 215
242 258 226 241 226 238 241 271 294 329 330 339 320 359 349 204 248 254 288 322 331 331 329 321 236 213 207 169 181 165 257 292 186 192 160 250 6 32 114 130 102 93 76 62 138 188 207 215 203 194 199 209 216 218
243 239 238 259 254 238 221 205 136 227 232 225 201 221 230 240 300 311 333 333 344 356 356 302 137 137 112 108 103 81 47 165 207 196 72 59 359 103 157 132 119 94 103 111 106 95 91 100 123 142 144 148 149 151
250 210 222 253 208 230 238 205 224 253 240 238 245 270 283 289 287 334 332 328 336 26 42 52 161 121 134 128 108 36 32 163 171 156 100 61 35 86 114 172 190 217 229 173 165 135 134 139 134 126 118 118 128 135
263 240 228 245 263 261 271 292 297 295 288 255 261 252 270 260 288 323 353 51 34 1 323 130 115 51 76 159 150 99 106 100 94 90 107 85 88 94 107 109 110 104 110 115 125 137 143 135 133 133 136 143 150 156
208 219 227 249 276 300 307 302 290 283 287 283 279 212 183 192 187 37 127 114 85 89 99 86 70 61 65 123 113 94 101 112 104 108 102 87 95 98 90 91 103 100 101 99 100 103 110 115 120 129 137 140 137 127
212 233 243 273 269 268 336 319 307 316 310 323 25 83 184 202 185 118 150 128 81 77 73 71 75 92 100 108 112 118 111 110 110 92 79 80 87 91 96 106 105 105 105 104 105 105 105 104 106 111 115 120 124 126
Wind_Speed_850mb
30 30 32 33 30 25 24 24 21 22 21 20 24 28 32 29 31 35 25 24 19 15 49 49 39 22 17 11 3 15 12 12 8 9 6 6 7 10 9 9 13 13 12 7 7 6 9 20 8 13 12 23 35 32
27 27 29 31 28 23 21 20 18 18 20 23 24 22 27 28 30 31 24 29 17 25 30 28 30 36 37 41 16 5 5 6 7 4 1 6 3 5 10 7 4 3 12 12 14 12 9 18 9 11 26 29 29 35
22 24 27 23 23 17 18 19 23 26 25 18 25 26 26 26 27 25 24 30 18 24 51 59 62 37 31 51 49 16 11 5 5 11 3 2 5 5 9 9 7 4 6 8 8 7 13 19 21 24 26 22 21 18
20 22 16 16 18 16 15 17 26 26 20 14 21 23 26 24 21 23 22 19 12 9 10 17 14 24 13 25 35 41 51 19 9 20 7 2 2 3 6 6 8 9 12 11 4 4 10 24 28 31 33 26 14 3
21 19 14 13 14 16 16 21 23 26 19 16 17 20 20 18 16 18 20 16 16 17 9 27 63 32 30 35 38 39 41 48 40 4 1 7 8 5 3 1 2 14 13 10 11 30 17 45 43 44 37 25 9 6
15 14 11 9 14 12 17 23 25 18 14 13 12 16 17 14 10 2 4 12 24 30 10 8 20 22 15 22 26 37 43 47 27 15 11 9 6 8 6 5 9 21 18 15 10 29 21 36 48 43 30 22 16 16
14 10 10 10 9 12 18 20 18 10 8 5 7 9 11 11 11 9 7 14 20 22 8 11 13 11 16 16 30 27 28 27 23 21 9 5 5 7 7 8 13 27 21 24 19 25 21 37 39 43 33 26 21 17
21 16 8 7 9 11 14 13 14 12 7 2 4 2 1 6 16 24 12 13 24 10 9 6 9 17 7 7 13 22 16 20 19 16 10 10 6 3 4 17 10 28 23 19 38 26 23 24 32 41 39 34 28 19
27 23 11 8 6 5 7 9 6 3 4 9 3 7 10 21 10 1 8 10 22 10 6 5 5 7 19 9 8 13 13 4 7 6 10 12 2 9 12 15 19 29 21 33 32 30 33 34 42 46 48 40 32 22
16 17 15 7 4 4 5 9 7 7 13 10 20 9 8 7 8 7 4 8 10 8 10 9 9 7 11 11 5 5 3 5 4 9 17 7 9 27 48 57 67 60 47 30 39 30 33 33 39 49 54 49 32 21
16 16 17 15 13 10 10 8 11 15 14 18 7 5 4 12 6 4 6 8 9 7 12 14 21 7 6 1 2 2 4 2 3 7 8 4 7 21 61 56 62 73 76 69 65 53 43 41 37 44 56 50 37 27
16 17 15 15 12 12 14 11 7 9 9 11 17 15 4 4 5 6 5 3 8 8 10 10 14 21 9 5 6 8 5 2 6 2 4 6 11 41 39 55 73 63 57 54 55 42 39 35 29 32 51 55 45 30
16 16 15 13 12 12 15 13 7 4 13 13 6 5 3 3 1 5 5 5 5 6 8 7 6 8 12 6 10 0 2 7 5 2 6 9 14 15 19 34 39 53 42 48 55 45 38 31 29 29 30 56 49 41
14 14 15 16 14 12 14 10 12 8 5 5 4 5 5 5 8 8 5 4 9 15 31 12 5 7 6 6 7 6 3 3 4 4 8 5 12 11 4 5 15 28 49 56 56 49 42 42 34 32 32 52 61 51
11 12 11 14 12 14 11 13 18 19 5 5 6 6 10 17 13 10 13 9 12 19 19 4 2 6 3 5 2 7 3 5 9 7 6 2 10 15 16 15 8 5 6 6 19 40 45 39 31 36 36 52 65 53
11 9 9 12 15 14 15 5 13 13 7 7 10 7 12 6 9 13 11 3 14 9 6 10 7 9 6 3 5 8 10 8 6 6 8 11 14 13 16 23 26 8 5 8 10 20 35 37 32 36 33 50 67 62
12 8 8 7 13 17 13 4 5 7 8 8 11 16 28 28 25 21 23 5 6 4 4 6 8 16 4 3 1 1 6 5 7 16 11 9 5 15 18 19 21 21 15 8 4 10 16 29 27 37 46 54 65 66
7 5 5 5 9 12 10 7 5 7 10 17 11 23 15 20 29 28 21 16 5 1 13 8 10 4 3 2 2 5 5 1 1 4 3 1 2 5 9 12 17 19 22 21 17 10 28 10 30 31 37 39 61 67
9 7 7 2 12 8 6 7 9 8 18 16 23 31 32 36 31 26 23 9 11 7 3 2 3 4 6 8 6 2 2 8 9 11 14 8 11 13 11 10 14 19 15 18 14 5 17 15 12 35 38 46 54 68
15 4 7 6 16 3 4 6 9 10 10 7 18 24 19 22 27 30 22 20 18 8 8 6 8 8 5 13 12 15 4 3 7 16 19 14 16 16 19 18 10 11 15 17 20 22 20 17 13 17 39 53 53 68
9 6 6 10 13 8 8 7 9 10 13 12 20 19 14 21 26 28 34 33 19 12 13 31 34 33 28 13 22 25 22 19 25 24 21 25 20 18 19 18 20 23 31 35 34 30 28 27 21 19 25 44 60 58
12 10 5 9 8 7 11 12 12 17 12 15 19 9 12 8 12 16 15 15 11 28 37 45 53 56 52 43 37 34 32 25 23 30 27 25 30 34 35 36 39 43 39 27 21 23 28 31 31 20 25 39 53 67
14 15 7 10 6 8 12 9 9 8 5 7 6 6 6 7 7 6 6 9 12 16 20 25 29 39 42 36 32 30 22 31 31 26 26 30 38 46 47 46 44 42 35 32 33 34 34 29 30 25 28 36 56 60
5 4 6 7 11 7 7 8 11 9 7 5 4 6 6 7 3 3 5 7 9 14 13 12 10 25 31 33 37 38 36 35 36 38 38 41 43 42 39 37 38 38 37 39 41 39 35 25 23 25 28 39 50 49
7 8 6 7 10 6 6 7 8 4 7 7 5 6 6 4 1 4 5 5 14 15 15 12 10 8 16 25 31 31 27 29 30 27 26 32 33 36 40 40 39 41 44 51 50 43 34 25 21 25 33 49 58 61
8 11 13 10 8 9 7 6 6 7 5 6 8 6 1 3 5 3 1 10 8 16 20 19 11 9 10 15 16 17 22 25 26 32 27 25 24 25 27 30 34 34 36 38 36 36 31 33 24 18 32 46 54 66
5 8 14 16 12 10 10 16 15 5 7 5 5 6 2 4 6 8 16 7 20 25 23 15 11 3 7 10 4 5 6 10 13 10 12 6 4 17 21 11 12 19 27 28 22 24 34 32 35 23 27 26 36 46
10 9 9 7 14 19 6 7 2 4 6 10 8 6 6 5 6 9 10 20 19 19 15 8 2 3 6 5 1 2 6 8 8 7 4 1 8 8 11 18 14 14 22 18 8 18 18 23 38 39 29 46 48 50
12 13 9 15 14 13 14 10 6 9 21 10 6 7 8 7 7 8 11 12 16 16 11 2 7 10 10 12 12 8 4 1 1 5 0 1 3 8 26 18 16 23 19 20 22 26 33 31 28 26 21 20 20 20
12 17 10 10 8 8 10 19 31 33 34 40 30 18 13 13 7 8 12 13 10 9 12 8 12 7 9 9 6 10 9 14 10 4 4 4 5 5 7 16 22 12 2 8 10 17 18 15 18 19 28 32 39 48
11 8 11 11 9 17 23 25 34 32 23 31 33 37 28 7 4 6 7 7 10 7 3 10 8 13 7 7 9 8 14 17 17 13 13 15 23 17 18 14 8 8 16 16 15 16 20 22 26 33 35 38 32 29
16 16 7 5 11 22 31 22 12 12 16 15 12 8 12 7 3 0 8 13 17 21 23 18 13 13 17 21 21 18 19 18 14 16 18 21 22 25 25 25 32 30 29 30 31 33 31 28 26 29 32 31 32 37
30 22 21 14 8 4 4 8 6 8 7 5 5 1 4 3 2 4 17 20 24 29 20 21 19 20 23 25 21 22 23 25 26 25 26 29 28 30 33 38 41 45 47 49 49 49 48 49 47 44 42 40 34 29
Wind_Direction_850mb
300 301 308 305 297 286 283 296 296 299 282 276 263 258 253 252 256 250 243 221 232 248 263 257 260 256 270 253 277 327 333 347 7 41 121 203 134 214 106 176 178 155 143 173 94 106 263 194 107 163 207 172 192 211
301 310 315 308 299 281 285 281 297 295 283 277 276 267 262 259 259 261 240 201 222 259 262 252 255 258 248 240 263 281 312 301 295 115 20 98 233 121 142 201 73 151 174 177 167 205 222 170 176 188 173 183 202 220
298 311 312 327 319 306 303 292 301 312 306 272 264 266 258 253 256 257 245 206 263 268 285 270 268 274 251 242 244 222 269 243 239 48 148 141 244 113 153 223 120 323 179 114 102 248 185 186 183 167 167 174 197 229
299 309 311 327 330 321 304 304 309 311 297 273 271 259 253 253 250 247 240 212 253 291 278 285 257 264 229 209 209 223 230 228 258 355 352 119 354 167 219 165 146 187 137 143 255 272 120 173 174 170 166 171 185 274
310 306 318 315 312 305 303 303 303 317 305 283 268 252 247 246 247 246 236 212 234 229 289 289 301 278 236 228 228 225 227 238 252 280 135 234 195 162 13 11 219 193 165 156 211 192 170 187 184 179 175 175 172 222
312 330 318 306 292 284 301 314 313 306 284 265 243 241 235 230 215 226 262 245 225 234 282 294 305 288 231 209 202 210 225 236 215 190 211 241 239 186 127 228 265 201 197 211 194 179 175 187 186 182 186 191 201 212
290 326 316 288 285 299 316 320 298 280 281 266 250 247 236 220 215 232 228 170 169 190 245 289 285 278 311 205 199 194 208 197 201 198 206 200 213 172 125 187 219 200 199 209 184 165 159 176 189 194 203 202 194 204
253 281 301 293 313 339 331 305 289 249 226 331 16 0 34 326 283 281 247 243 183 211 250 278 277 315 10 168 150 183 177 187 206 198 172 181 155 66 222 233 245 186 180 188 171 181 196 198 206 202 200 198 198 211
248 250 264 286 320 333 350 342 342 314 191 129 95 273 266 276 259 213 202 194 201 231 279 248 270 281 351 37 145 157 176 110 198 156 200 153 181 210 220 264 217 213 216 203 190 192 185 205 213 206 202 196 203 202
264 250 236 234 279 314 273 354 348 54 114 155 288 261 234 173 173 151 139 180 205 228 230 248 256 268 335 2 52 112 149 154 165 237 154 164 237 226 219 235 259 265 241 234 188 180 186 199 207 210 211 210 205 196
267 258 246 241 260 261 264 264 241 236 242 271 269 264 81 136 176 236 215 188 189 234 224 239 229 236 297 29 214 58 138 56 137 258 148 232 257 231 228 221 225 232 235 232 229 223 221 231 225 217 215 206 198 191
271 256 246 235 241 259 270 258 274 225 221 288 303 311 196 241 245 246 210 202 201 238 210 207 238 211 243 229 87 356 106 75 223 269 140 255 246 236 244 237 229 235 243 227 210 221 225 229 242 229 222 205 197 188
277 250 229 237 238 264 264 248 232 270 266 300 305 300 235 224 352 229 240 259 265 295 331 283 245 222 186 155 76 142 139 229 329 94 232 230 301 311 266 241 226 229 228 221 221 230 227 236 227 224 227 209 193 194
270 229 221 225 228 252 225 208 224 274 291 271 261 279 234 217 239 205 253 264 291 300 317 314 275 199 181 143 166 118 232 65 3 313 247 266 333 11 354 188 216 236 242 241 237 236 236 232 235 225 236 209 195 199
227 209 213 223 252 214 244 218 216 221 284 260 245 237 227 238 275 273 300 293 331 293 345 347 345 340 284 136 134 103 96 238 209 235 243 278 97 85 84 84 88 93 83 65 228 229 232 224 233 232 228 206 201 202
215 210 230 236 234 229 199 253 190 180 261 246 239 268 269 280 293 319 314 180 339 301 26 48 28 355 320 13 156 216 157 217 257 239 165 144 112 107 84 62 47 69 206 25 28 233 216 221 225 220 201 195 203 204
194 230 211 227 205 192 197 191 168 205 249 245 249 258 271 281 267 291 328 239 57 19 99 83 151 228 315 311 241 27 182 224 226 165 167 164 76 57 61 51 48 45 48 333 68 46 234 219 218 217 204 201 207 206
201 184 161 186 173 184 221 212 236 238 250 249 248 265 265 267 289 298 311 327 306 94 156 161 244 253 217 211 231 250 239 89 190 240 250 115 50 34 20 14 23 22 22 19 308 317 0 257 213 210 203 204 208 210
195 187 204 208 175 154 197 225 223 260 246 259 261 268 275 278 283 281 290 271 242 265 260 218 292 245 238 222 202 205 119 85 44 337 320 285 279 284 301 314 321 330 344 7 38 7 320 340 309 231 221 212 206 210
222 238 207 199 184 309 249 233 223 258 265 270 274 268 260 264 281 274 251 247 257 227 203 209 216 226 199 143 80 39 69 194 252 299 307 283 306 309 311 286 291 317 324 334 333 333 337 326 289 277 235 218 212 207
178 207 201 183 204 266 270 277 251 250 282 270 282 291 270 257 258 255 259 265 238 213 221 224 227 240 242 248 279 298 294 293 276 276 282 285 298 301 305 310 303 305 310 308 309 317 320 335 317 269 245 233 222 214
180 217 155 169 224 232 266 251 262 294 276 270 294 243 258 259 248 249 258 206 226 242 234 238 237 235 238 249 259 268 277 277 271 250 247 258 270 281 287 291 290 294 301 303 305 309 310 308 320 284 243 231 225 218
185 192 213 175 242 224 268 256 256 251 244 259 276 272 249 246 238 229 249 230 246 273 299 281 266 248 241 239 250 260 264 250 268 267 253 263 273 278 276 274 275 279 282 285 295 300 303 292 288 295 238 228 216 213
183 221 212 205 208 263 263 249 230 257 262 262 252 261 262 250 267 229 243 259 299 325 329 328 276 242 239 243 244 246 253 268 259 262 266 268 273 270 272 270 271 269 272 282 286 285 289 273 264 266 233 219 200 211
206 221 232 221 213 239 254 248 212 229 246 237 261 267 269 265 260 253 227 306 350 11 7 351 323 298 251 249 250 255 251 249 245 249 263 266 270 264 262 264 261 264 273 276 277 275 274 249 238 247 223 206 202 202
224 208 197 212 216 201 243 268 209 219 239 257 239 250 53 318 257 244 317 328 333 359 354 346 326 314 287 251 252 248 250 253 251 261 279 270 276 280 279 276 274 270 269 270 268 259 241 216 208 225 213 206 213 209
248 239 234 234 245 269 267 260 261 225 241 249 309 333 268 266 356 336 299 311 330 336 332 320 321 26 20 160 150 170 172 223 229 273 276 250 282 322 326 261 276 286 277 272 251 213 197 204 198 194 187 197 214 215
242 258 226 241 226 238 241 271 294 329 330 339 320 359 349 204 248 254 288 322 331 331 329 321 236 213 207 169 181 165 257 292 186 192 160 250 6 32 114 130 102 93 76 62 138 188 207 215 203 194 199 209 216 218
243 239 238 259 254 238 221 205 136 227 232 225 201 221 230 240 300 311 333 333 344 356 356 302 137 137 112 108 103 81 47 165 207 196 72 59 359 103 157 132 119 94 103 111 106 95 91 100 123 142 144 148 149 151
250 210 222 253 208 230 238 205 224 253 240 238 245 270 283 289 287 334 332 328 336 26 42 52 161 121 134 128 108 36 32 163 171 156 100 61 35 86 114 172 190 217 229 173 165 135 134 139 134 126 118 118 128 135
263 240 228 245 263 261 271 292 297 295 288 255 261 252 270 260 288 323 353 51 34 1 323 130 115 51 76 159 150 99 106 100 94 90 107 85 88 94 107 109 110 104 110 115 125 137 143 135 133 133 136 143 150 156
208 219 227 249 276 300 307 302 290 283 287 283 279 212 183 192 187 37 127 114 85 89 99 86 70 61 65 123 113 94 101 112 104 108 102 87 95 98 90 91 103 100 101 99 100 103 110 115 120 129 137 140 137 127
212 233 243 273 269 268 336 319 307 316 310 323 25 83 184 202 185 118 150 128 81 77 73 71 75 92 100 108 112 118 111 110 110 92 79 80 87 91 96 106 105 105 105 104 105 105 105 104 106 111 115 120 124 126